Location: Sevilla
(37.3933°N, 5.9839°W)
Time: 05:01:56
(UTC+02:00)

Tiros 1 despin weight - Pass Details

Date: 29 June 2024
Orbit: 576 x 620 km, 48.2° (Epoch: 22 July)

Event Time Altitude Azimuth Distance (km) Brightness Sun altitude
Rises 11:01:22 0° 222° (SW) 2,843 ? 43.9°
Reaches altitude 10° 11:03:40 10° 218° (SW) 1,950 ? 44.3°
Maximum altitude 11:08:03 56° 141° (SE) 729 ? 45.2°
Drops below altitude 10° 11:12:31 10° 63° (ENE) 1,980 ? 46.1°
Sets 11:14:52 0° 59° (ENE) 2,892 ? 46.6°
